| time (UTC) | temp C | wind direction | speed KPH | gust KPH | rain 1hr cm | rain 24hr cm | rain mn cm | humidity % | barometer mb |
| 20260506202736 | 6 | 48 | 0.0 | 1.6 | 0.18 | 2.03 | 2.03 | 97 | 1007.7 |
| 20260506202232 | 6 | 48 | 0.0 | 1.6 | 0.13 | 2.01 | 2.01 | 97 | 1007.6 |
| 20260506201729 | 6 | 86 | 0.0 | 1.6 | 0.13 | 2.01 | 2.01 | 97 | 1007.6 |
| 20260506201226 | 6 | 86 | 0.0 | 1.6 | 0.00 | 1.98 | 1.98 | 97 | 1007.5 |
| 20260506200723 | 6 | 87 | 0.0 | 1.6 | 0.18 | 1.98 | 1.98 | 97 | 1007.5 |
| 20260506200220 | 6 | 87 | 0.0 | 1.6 | 0.18 | 1.98 | 1.98 | 97 | 1007.7 |
| 20260506195716 | 6 | 87 | 0.0 | 1.6 | 0.00 | 1.96 | 1.96 | 97 | 1007.7 |
| 20260506195212 | 6 | 88 | 1.6 | 1.6 | 0.00 | 1.96 | 1.96 | 96 | 1007.6 |
| 20260506194710 | 6 | 91 | 1.6 | 1.6 | 0.00 | 1.96 | 1.96 | 96 | 1007.5 |
| 20260506194206 | 6 | 83 | 1.6 | 3.2 | 0.00 | 1.96 | 1.96 | 96 | 1007.4 |
| 20260506193704 | 6 | 36 | 0.0 | 1.6 | 0.00 | 1.96 | 1.96 | 97 | 1007.2 |
| 20260506193201 | 6 | 36 | 1.6 | 1.6 | 0.00 | 1.96 | 1.96 | 97 | 1007.2 |
| 20260506192657 | 6 | 33 | 1.6 | 3.2 | 0.13 | 1.96 | 1.96 | 97 | 1007.2 |
| 20260506192153 | 6 | 49 | 1.6 | 3.2 | 0.13 | 1.96 | 1.96 | 97 | 1007.1 |
| 20260506191651 | 6 | 69 | 0.0 | 1.6 | 0.00 | 1.93 | 1.93 | 97 | 1007.1 |
| 20260506191147 | 6 | 45 | 1.6 | 1.6 | 0.00 | 1.93 | 1.93 | 97 | 1007.1 |
| 20260506190644 | 6 | 46 | 0.0 | 1.6 | 0.00 | 1.93 | 1.93 | 97 | 1007.1 |
| 20260506190141 | 6 | 46 | 0.0 | 1.6 | 0.18 | 1.93 | 1.93 | 97 | 1007.1 |
| 20260506185638 | 6 | 56 | 1.6 | 1.6 | 0.18 | 1.93 | 1.93 | 97 | 1007.3 |
| 20260506185134 | 6 | 57 | 0.0 | 1.6 | 0.00 | 1.91 | 1.91 | 97 | 1007.3 |
| 20260506184632 | 6 | 57 | 0.0 | 0.0 | 0.13 | 1.91 | 1.91 | 97 | 1007.5 |
| 20260506184129 | 5 | 57 | 0.0 | 1.6 | 0.13 | 1.91 | 1.91 | 97 | 1007.8 |
| 20260506183625 | 5 | 57 | 0.0 | 1.6 | 0.00 | 1.88 | 1.88 | 97 | 1007.8 |
| 20260506183121 | 5 | 56 | 0.0 | 1.6 | 0.00 | 1.88 | 1.88 | 97 | 1007.7 |
| 20260506182619 | 5 | 54 | 0.0 | 0.0 | 0.00 | 1.88 | 1.88 | 97 | 1007.7 |
| 20260506182116 | 5 | 48 | 0.0 | 1.6 | 0.18 | 1.88 | 1.88 | 97 | 1007.8 |
| 20260506181614 | 5 | 48 | 0.0 | 1.6 | 0.18 | 1.88 | 1.88 | 97 | 1008.0 |
| 20260506181111 | 5 | 48 | 0.0 | 0.0 | 0.00 | 1.85 | 1.85 | 97 | 1008.0 |
| 20260506180608 | 6 | 50 | 1.6 | 1.6 | 0.00 | 1.85 | 1.85 | 97 | 1008.0 |
| 20260506180104 | 6 | 67 | 0.0 | 1.6 | 0.13 | 1.85 | 1.85 | 98 | 1007.9 |
| 20260506175600 | 5 | 67 | 0.0 | 0.0 | 0.13 | 1.85 | 1.85 | 98 | 1008.2 |
| 20260506175056 | 5 | 68 | 0.0 | 1.6 | 0.00 | 1.83 | 1.83 | 98 | 1008.1 |
| 20260506174555 | 5 | 39 | 1.6 | 1.6 | 0.00 | 1.83 | 1.83 | 98 | 1008.4 |
| 20260506174051 | 5 | 46 | 0.0 | 1.6 | 0.00 | 1.83 | 1.83 | 98 | 1008.0 |
| 20260506173549 | 5 | 46 | 1.6 | 1.6 | 0.18 | 1.83 | 1.83 | 98 | 1008.1 |
| 20260506173046 | 5 | 45 | 0.0 | 0.0 | 0.30 | 1.83 | 1.83 | 98 | 1008.4 |
| 20260506172543 | 5 | 53 | 0.0 | 1.6 | 0.13 | 1.80 | 1.80 | 98 | 1008.2 |
| 20260506172039 | 5 | 77 | 1.6 | 1.6 | 0.18 | 1.78 | 1.78 | 98 | 1008.4 |
| 20260506171537 | 5 | 71 | 0.0 | 1.6 | 0.00 | 1.75 | 1.75 | 98 | 1008.1 |
| 20260506171034 | 5 | 86 | 0.0 | 1.6 | 0.00 | 1.75 | 1.75 | 97 | 1008.0 |
| 20260506170531 | 5 | 63 | 1.6 | 1.6 | 0.13 | 1.75 | 1.75 | 98 | 1008.4 |
| 20260506170024 | 5 | 62 | 1.6 | 1.6 | 0.13 | 1.75 | 1.75 | 98 | 1008.5 |
| 20260506165522 | 5 | 91 | 0.0 | 1.6 | 0.18 | 1.73 | 1.73 | 97 | 1008.6 |
| 20260506165017 | 5 | 39 | 0.0 | 1.6 | 0.36 | 1.73 | 1.73 | 98 | 1008.4 |
| 20260506164514 | 5 | 39 | 0.0 | 1.6 | 0.18 | 1.70 | 1.70 | 97 | 1008.8 |
| 20260506164012 | 5 | 44 | 0.0 | 1.6 | 0.13 | 1.68 | 1.68 | 97 | 1008.5 |
| 20260506163507 | 5 | 51 | 0.0 | 1.6 | 0.30 | 1.68 | 1.68 | 97 | 1008.7 |
| 20260506163003 | 5 | 51 | 0.0 | 1.6 | 0.18 | 1.65 | 1.65 | 97 | 1008.6 |
| 20260506162500 | 5 | 51 | 1.6 | 1.6 | 0.30 | 1.63 | 1.63 | 97 | 1008.8 |
| 20260506161956 | 5 | 51 | 0.0 | 1.6 | 0.30 | 1.60 | 1.60 | 97 | 1008.8 |
| 20260506161454 | 5 | 50 | 1.6 | 4.8 | 0.30 | 1.57 | 1.57 | 97 | 1008.7 |
| 20260506160946 | 5 | 51 | 1.6 | 1.6 | 0.48 | 1.55 | 1.55 | 97 | 1008.9 |
| 20260506160443 | 5 | 68 | 0.0 | 1.6 | 0.48 | 1.50 | 1.50 | 97 | 1008.8 |
| 20260506155941 | 5 | 68 | 0.0 | 1.6 | 0.48 | 1.47 | 1.47 | 97 | 1009.1 |
| 20260506155439 | 5 | 58 | 0.0 | 1.6 | 0.30 | 1.42 | 1.42 | 97 | 1009.1 |
| 20260506153610 | 5 | 60 | 0.0 | 6.4 | 0.30 | 1.30 | 1.30 | 97 | 1009.1 |
| 20260506153108 | 5 | 31 | 1.6 | 3.2 | 0.30 | 1.27 | 1.27 | 97 | 1009.3 |
| 20260506152604 | 5 | 60 | 0.0 | 1.6 | 0.30 | 1.24 | 1.24 | 97 | 1008.9 |
| 20260506152102 | 5 | 60 | 0.0 | 1.6 | 0.30 | 1.22 | 1.22 | 97 | 1008.9 |
| 20260506151600 | 5 | 50 | 1.6 | 1.6 | 0.13 | 1.19 | 1.19 | 97 | 1008.7 |
| 20260506151057 | 5 | 48 | 1.6 | 1.6 | 0.18 | 1.17 | 1.17 | 97 | 1008.9 |
| 20260506150554 | 5 | 56 | 1.6 | 3.2 | 0.13 | 1.14 | 1.14 | 97 | 1008.5 |
| 20260506150050 | 5 | 63 | 0.0 | 0.0 | 0.13 | 1.14 | 1.14 | 97 | 1008.7 |
| 20260506145547 | 5 | 33 | 0.0 | 3.2 | 0.18 | 1.12 | 1.12 | 97 | 1008.7 |
| 20260506145045 | 5 | 33 | 0.0 | 3.2 | 0.18 | 1.09 | 1.09 | 97 | 1008.8 |
| 20260506144541 | 5 | 67 | 1.6 | 3.2 | 0.18 | 1.09 | 1.09 | 97 | 1008.9 |
| 20260506144039 | 5 | 46 | 1.6 | 3.2 | 0.13 | 1.07 | 1.07 | 97 | 1008.8 |
| 20260506143536 | 5 | 68 | 1.6 | 1.6 | 0.13 | 1.07 | 1.07 | 97 | 1009.0 |
| 20260506143035 | 5 | 63 | 0.0 | 1.6 | 0.18 | 1.04 | 1.04 | 97 | 1008.8 |
| 20260506142532 | 5 | 54 | 0.0 | 1.6 | 0.13 | 1.02 | 1.02 | 97 | 1009.0 |
| 20260506142030 | 5 | 24 | 1.6 | 3.2 | 0.13 | 1.02 | 1.02 | 97 | 1009.2 |
| 20260506141527 | 5 | 14 | 1.6 | 3.2 | 0.18 | 0.99 | 0.99 | 97 | 1009.1 |
| 20260506141026 | 5 | 42 | 1.6 | 1.6 | 0.18 | 0.99 | 0.99 | 96 | 1009.1 |
| 20260506140523 | 6 | 59 | 1.6 | 1.6 | 0.00 | 0.97 | 0.97 | 96 | 1009.0 |
| 20260506140020 | 6 | 29 | 3.2 | 3.2 | 0.13 | 0.97 | 0.97 | 96 | 1008.9 |
| 20260506135517 | 6 | 42 | 1.6 | 1.6 | 0.00 | 0.94 | 0.94 | 96 | 1008.5 |
| 20260506135013 | 6 | 43 | 1.6 | 1.6 | 0.00 | 0.94 | 0.94 | 96 | 1008.5 |
| 20260506134509 | 6 | 43 | 0.0 | 1.6 | 0.00 | 0.94 | 0.94 | 95 | 1008.8 |
| 20260506134006 | 6 | 43 | 1.6 | 1.6 | 0.00 | 0.94 | 0.94 | 95 | 1008.9 |
| 20260506133503 | 6 | 43 | 1.6 | 1.6 | 0.00 | 0.94 | 0.94 | 95 | 1009.2 |
| 20260506132959 | 6 | 56 | 1.6 | 1.6 | 0.00 | 0.94 | 0.94 | 95 | 1009.1 |
| 20260506132457 | 6 | 72 | 1.6 | 1.6 | 0.00 | 0.94 | 0.94 | 95 | 1009.3 |
| 20260506131954 | 6 | 80 | 0.0 | 1.6 | 0.00 | 0.94 | 0.94 | 95 | 1009.2 |
| 20260506131451 | 6 | 82 | 0.0 | 0.0 | 0.18 | 0.94 | 0.94 | 95 | 1009.4 |
| 20260506130947 | 6 | 54 | 0.0 | 3.2 | 0.18 | 0.94 | 0.94 | 96 | 1009.2 |
| 20260506130444 | 6 | 93 | 0.0 | 1.6 | 0.00 | 0.91 | 0.91 | 96 | 1009.4 |
| 20260506125942 | 6 | 56 | 0.0 | 1.6 | 0.00 | 0.91 | 0.91 | 96 | 1009.3 |
| 20260506125440 | 6 | 47 | 0.0 | 1.6 | 0.13 | 0.91 | 0.91 | 96 | 1009.5 |
| 20260506124938 | 6 | 46 | 0.0 | 1.6 | 0.13 | 0.91 | 0.91 | 96 | 1009.4 |
| 20260506124435 | 6 | 23 | 0.0 | 0.0 | 0.18 | 0.89 | 0.89 | 96 | 1009.5 |
| 20260506123933 | 6 | 25 | 0.0 | 1.6 | 0.18 | 0.89 | 0.89 | 96 | 1009.1 |
| 20260506123431 | 6 | 51 | 0.0 | 4.8 | 0.13 | 0.86 | 0.86 | 95 | 1009.4 |
| 20260506122928 | 6 | 119 | 1.6 | 3.2 | 0.13 | 0.86 | 0.86 | 96 | 1009.1 |
| 20260506122425 | 6 | 46 | 0.0 | 3.2 | 0.18 | 0.84 | 0.84 | 96 | 1009.9 |
| 20260506121923 | 6 | 49 | 0.0 | 1.6 | 0.30 | 0.84 | 0.84 | 96 | 1009.8 |
| 20260506121420 | 6 | 43 | 1.6 | 1.6 | 0.13 | 0.81 | 0.81 | 96 | 1010.1 |
| 20260506120917 | 6 | 56 | 0.0 | 1.6 | 0.18 | 0.79 | 0.79 | 96 | 1009.9 |
| 20260506120414 | 6 | 59 | 1.6 | 1.6 | 0.18 | 0.79 | 0.79 | 96 | 1010.1 |
| 20260506115911 | 6 | 60 | 0.0 | 0.0 | 0.00 | 0.76 | 0.76 | 96 | 1009.8 |
| 20260506115409 | 7 | 60 | 0.0 | 0.0 | 0.18 | 0.76 | 0.76 | 97 | 1010.0 |
| 20260506114908 | 7 | 60 | 0.0 | 1.6 | 0.13 | 0.74 | 0.74 | 97 | 1010.0 |
| 20260506114405 | 7 | 80 | 0.0 | 1.6 | 0.30 | 0.74 | 0.74 | 97 | 1010.3 |
| 20260506113904 | 7 | 54 | 1.6 | 1.6 | 0.18 | 0.71 | 0.71 | 97 | 1010.2 |
| 20260506113400 | 7 | 32 | 0.0 | 1.6 | 0.13 | 0.69 | 0.69 | 96 | 1010.2 |
| 20260506112857 | 7 | 32 | 0.0 | 0.0 | 0.18 | 0.66 | 0.66 | 96 | 1009.7 |
| 20260506112354 | 7 | 32 | 0.0 | 0.0 | 0.18 | 0.66 | 0.66 | 96 | 1009.8 |
| 20260506111851 | 7 | 38 | 0.0 | 1.6 | 0.00 | 0.64 | 0.64 | 97 | 1009.5 |
| 20260506111350 | 7 | 38 | 0.0 | 1.6 | 0.00 | 0.64 | 0.64 | 97 | 1009.2 |
| 20260506110847 | 7 | 39 | 0.0 | 1.6 | 0.00 | 0.64 | 0.64 | 97 | 1009.2 |
| 20260506110344 | 7 | 87 | 0.0 | 1.6 | 0.00 | 0.64 | 0.64 | 97 | 1009.1 |
| 20260506105841 | 7 | 87 | 0.0 | 0.0 | 0.00 | 0.64 | 0.64 | 97 | 1009.2 |
| 20260506105337 | 7 | 87 | 0.0 | 0.0 | 0.00 | 0.64 | 0.64 | 97 | 1009.2 |
| 20260506104835 | 7 | 87 | 0.0 | 0.0 | 0.13 | 0.64 | 0.64 | 97 | 1009.7 |
| 20260506104332 | 7 | 87 | 0.0 | 0.0 | 0.13 | 0.64 | 0.64 | 97 | 1009.3 |
| 20260506103829 | 7 | 87 | 0.0 | 0.0 | 0.00 | 0.61 | 0.61 | 97 | 1009.5 |
| 20260506103327 | 7 | 87 | 0.0 | 0.0 | 0.00 | 0.61 | 0.61 | 97 | 1009.1 |
| 20260506102824 | 7 | 87 | 0.0 | 1.6 | 0.00 | 0.61 | 0.61 | 97 | 1009.5 |
| 20260506102322 | 7 | 32 | 0.0 | 1.6 | 0.00 | 0.61 | 0.61 | 97 | 1009.2 |
| 20260506101819 | 7 | 32 | 0.0 | 1.6 | 0.00 | 0.61 | 0.61 | 97 | 1009.5 |
| 20260506101315 | 7 | 350 | 1.6 | 3.2 | 0.00 | 0.61 | 0.61 | 97 | 1009.6 |
| 20260506100813 | 7 | 32 | 1.6 | 1.6 | 0.00 | 0.61 | 0.61 | 97 | 1009.2 |
| 20260506100311 | 7 | 33 | 0.0 | 1.6 | 0.30 | 0.61 | 0.61 | 97 | 1009.4 |
| 20260506095809 | 8 | 4 | 3.2 | 3.2 | 0.43 | 0.58 | 0.58 | 97 | 1008.2 |
| 20260506095306 | 8 | 37 | 0.0 | 1.6 | 0.13 | 0.53 | 0.53 | 97 | 1009.8 |
| 20260506094803 | 8 | 37 | 0.0 | 1.6 | 0.00 | 0.51 | 0.51 | 97 | 1009.7 |
| 20260506094301 | 8 | 38 | 0.0 | 0.0 | 0.00 | 0.51 | 0.51 | 97 | 1009.5 |
| 20260506093759 | 8 | 37 | 0.0 | 1.6 | 0.00 | 0.51 | 0.51 | 97 | 1009.4 |
| 20260506093256 | 8 | 14 | 1.6 | 3.2 | 0.00 | 0.51 | 0.51 | 97 | 1009.5 |
| 20260506092754 | 8 | 59 | 0.0 | 0.0 | 0.00 | 0.51 | 0.51 | 97 | 1009.6 |
| 20260506092252 | 8 | 59 | 0.0 | 0.0 | 0.18 | 0.51 | 0.51 | 97 | 1009.7 |
| 20260506091748 | 8 | 59 | 0.0 | 1.6 | 0.13 | 0.48 | 0.48 | 97 | 1009.6 |
| 20260506091246 | 8 | 58 | 0.0 | 1.6 | 0.00 | 0.46 | 0.46 | 97 | 1010.2 |
| 20260506090744 | 8 | 62 | 0.0 | 0.0 | 0.00 | 0.46 | 0.46 | 97 | 1009.5 |
| 20260506090241 | 8 | 62 | 1.6 | 1.6 | 0.00 | 0.46 | 0.46 | 97 | 1009.8 |
| 20260506085737 | 8 | 62 | 0.0 | 0.0 | 0.00 | 0.46 | 0.46 | 97 | 1009.8 |
| 20260506085234 | 8 | 62 | 0.0 | 1.6 | 0.00 | 0.46 | 0.46 | 97 | 1009.5 |
| 20260506084730 | 8 | 62 | 0.0 | 0.0 | 0.00 | 0.46 | 0.46 | 97 | 1010.0 |
| 20260506084226 | 8 | 62 | 1.6 | 1.6 | 0.00 | 0.46 | 0.46 | 97 | 1009.5 |
| 20260506083724 | 8 | 62 | 0.0 | 0.0 | 0.18 | 0.46 | 0.46 | 97 | 1009.7 |
| 20260506083221 | 8 | 62 | 0.0 | 1.6 | 0.18 | 0.46 | 0.46 | 97 | 1009.8 |
| 20260506082719 | 8 | 62 | 0.0 | 1.6 | 0.00 | 0.43 | 0.43 | 97 | 1009.9 |
| 20260506082214 | 8 | 62 | 0.0 | 1.6 | 0.00 | 0.43 | 0.43 | 97 | 1009.9 |
| 20260506081712 | 8 | 62 | 0.0 | 1.6 | 0.00 | 0.43 | 0.43 | 97 | 1009.9 |
| 20260506081209 | 8 | 62 | 0.0 | 0.0 | 0.18 | 0.43 | 0.43 | 97 | 1010.0 |
| 20260506080707 | 8 | 62 | 1.6 | 1.6 | 0.30 | 0.43 | 0.43 | 97 | 1009.9 |
| 20260506080203 | 8 | 62 | 0.0 | 1.6 | 0.43 | 0.41 | 0.41 | 97 | 1010.0 |
| 20260506073148 | 9 | 62 | 0.0 | 0.0 | 0.00 | 0.30 | 0.30 | 97 | 1010.1 |
| 20260506072644 | 9 | 62 | 0.0 | 1.6 | 0.00 | 0.30 | 0.30 | 97 | 1009.8 |
| 20260506072142 | 9 | 62 | 0.0 | 0.0 | 0.00 | 0.30 | 0.30 | 97 | 1009.9 |
| 20260506071639 | 9 | 62 | 0.0 | 1.6 | 0.00 | 0.30 | 0.30 | 97 | 1009.7 |
| 20260506071137 | 9 | 62 | 0.0 | 0.0 | 0.00 | 0.30 | 0.30 | 97 | 1009.4 |
| 20260506070634 | 9 | 62 | 0.0 | 0.0 | 0.00 | 0.30 | 0.30 | 97 | 1009.9 |
| 20260506070131 | 9 | 62 | 0.0 | 0.0 | 0.13 | 0.30 | 0.30 | 97 | 1009.6 |
| 20260506062103 | 10 | 62 | 0.0 | 0.0 | 0.00 | 0.25 | 0.25 | 97 | 1009.7 |
| 20260506061558 | 10 | 62 | 0.0 | 1.6 | 0.00 | 0.25 | 0.25 | 97 | 1009.9 |
| 20260506061056 | 10 | 62 | 0.0 | 1.6 | 0.00 | 0.25 | 0.25 | 97 | 1010.0 |
| 20260506060555 | 10 | 62 | 0.0 | 1.6 | 0.00 | 0.25 | 0.25 | 97 | 1009.9 |
| 20260506051024 | 10 | 64 | 0.0 | 0.0 | 0.18 | 0.18 | 0.18 | 97 | 1010.1 |
| 20260506050521 | 10 | 64 | 0.0 | 1.6 | 0.18 | 0.18 | 0.18 | 96 | 1009.4 |
| 20260506045011 | 10 | 67 | 0.0 | 0.0 | 0.13 | 0.13 | 0.13 | 96 | 1009.6 |
| 20260506044510 | 10 | 66 | 0.0 | 1.6 | 0.30 | 0.13 | 0.13 | 96 | 1009.3 |
| 20260506044006 | 10 | 66 | 0.0 | 1.6 | 0.18 | 0.10 | 0.10 | 96 | 1009.2 |
| 20260506043503 | 10 | 71 | 0.0 | 1.6 | 0.00 | 0.08 | 0.08 | 96 | 1009.3 |
| 20260506043001 | 10 | 79 | 0.0 | 0.0 | 0.13 | 0.08 | 0.08 | 96 | 1009.2 |
| 20260506042500 | 10 | 79 | 1.6 | 1.6 | 0.13 | 0.08 | 0.08 | 96 | 1009.1 |
| 20260506041957 | 10 | 79 | 0.0 | 1.6 | 0.00 | 0.05 | 0.05 | 96 | 1009.2 |
| 20260506041455 | 10 | 88 | 0.0 | 0.0 | 0.18 | 0.05 | 0.05 | 95 | 1009.9 |
| 20260506040952 | 10 | 88 | 0.0 | 0.0 | 0.13 | 0.03 | 0.03 | 95 | 1009.4 |
| 20260506040450 | 10 | 88 | 0.0 | 0.0 | 0.13 | 0.03 | 0.03 | 95 | 1009.6 |
| 20260506035946 | 10 | 88 | 1.6 | 1.6 | 0.18 | 1.02 | 1.02 | 95 | 1009.4 |
| 20260506035443 | 10 | 87 | 1.6 | 3.2 | 0.18 | 1.02 | 1.02 | 95 | 1009.5 |
| 20260506034939 | 10 | 88 | 1.6 | 1.6 | 0.00 | 0.99 | 0.99 | 94 | 1009.4 |
| 20260506034437 | 10 | 88 | 0.0 | 1.6 | 0.00 | 0.99 | 0.99 | 94 | 1009.3 |
| 20260506033934 | 10 | 88 | 0.0 | 1.6 | 0.00 | 0.99 | 0.99 | 94 | 1009.3 |
| 20260506033431 | 10 | 88 | 1.6 | 1.6 | 0.13 | 0.99 | 0.99 | 93 | 1009.6 |
| 20260506032928 | 10 | 88 | 1.6 | 1.6 | 0.30 | 0.99 | 0.99 | 93 | 1009.4 |
| 20260506032425 | 11 | 88 | 0.0 | 1.6 | 0.30 | 0.97 | 0.97 | 92 | 1009.3 |
| 20260506031921 | 11 | 88 | 1.6 | 1.6 | 0.43 | 0.94 | 0.94 | 90 | 1009.5 |
| 20260506031419 | 11 | 88 | 0.0 | 0.0 | 0.30 | 0.89 | 0.89 | 89 | 1009.0 |
| 20260506030916 | 11 | 90 | 0.0 | 1.6 | 0.36 | 0.86 | 0.86 | 86 | 1009.1 |
| 20260506030414 | 12 | 100 | 1.6 | 3.2 | 0.00 | 0.81 | 0.81 | 85 | 1008.8 |
| 20260506025911 | 12 | 39 | 1.6 | 3.2 | 0.00 | 0.81 | 0.81 | 84 | 1008.8 |
| 20260506025408 | 12 | 64 | 0.0 | 0.0 | 0.00 | 0.81 | 0.81 | 86 | 1008.6 |
| 20260506024905 | 12 | 64 | 0.0 | 1.6 | 0.00 | 0.81 | 0.81 | 83 | 1008.2 |
| 20260506024402 | 12 | 35 | 1.6 | 3.2 | 0.00 | 0.81 | 0.81 | 80 | 1008.2 |
| 20260506023857 | 12 | 28 | 1.6 | 3.2 | 0.00 | 0.81 | 0.81 | 82 | 1008.6 |
| 20260506023355 | 12 | 345 | 3.2 | 4.8 | 0.13 | 0.81 | 0.81 | 79 | 1008.0 |
| 20260506022851 | 12 | 18 | 3.2 | 3.2 | 0.13 | 0.81 | 0.81 | 87 | 1008.2 |
| 20260506022349 | 12 | 55 | 0.0 | 1.6 | 0.00 | 0.79 | 0.79 | 91 | 1008.4 |
| 20260506021847 | 13 | 56 | 0.0 | 1.6 | 0.00 | 0.79 | 0.79 | 89 | 1008.1 |
| 20260506021343 | 13 | 59 | 0.0 | 1.6 | 0.00 | 0.79 | 0.79 | 87 | 1008.1 |
| 20260506020840 | 13 | 60 | 0.0 | 4.8 | 0.18 | 0.79 | 0.79 | 86 | 1007.9 |
| 20260506020338 | 14 | 7 | 3.2 | 9.7 | 0.30 | 0.79 | 0.79 | 85 | 1008.6 |
| 20260506015835 | 14 | 304 | 6.4 | 9.7 | 0.43 | 0.76 | 0.76 | 89 | 1008.4 |
| 20260506015333 | 15 | 26 | 1.6 | 1.6 | 0.13 | 0.71 | 0.71 | 86 | 1008.0 |
| 20260506014829 | 15 | 33 | 0.0 | 1.6 | 0.00 | 0.69 | 0.69 | 86 | 1007.9 |
| 20260506014326 | 15 | 38 | 0.0 | 0.0 | 0.00 | 0.69 | 0.69 | 86 | 1007.7 |
| 20260506013823 | 14 | 41 | 3.2 | 4.8 | 0.00 | 0.69 | 0.69 | 86 | 1007.3 |
| 20260506013320 | 14 | 114 | 1.6 | 1.6 | 0.00 | 0.69 | 0.69 | 88 | 1007.2 |
| 20260506012817 | 14 | 110 | 0.0 | 1.6 | 0.00 | 0.69 | 0.69 | 88 | 1007.1 |
| 20260506012314 | 15 | 110 | 0.0 | 0.0 | 0.00 | 0.69 | 0.69 | 86 | 1007.0 |
| 20260506011811 | 15 | 110 | 0.0 | 0.0 | 0.00 | 0.69 | 0.69 | 85 | 1006.9 |
| 20260506011307 | 15 | 108 | 1.6 | 4.8 | 0.00 | 0.69 | 0.69 | 82 | 1006.7 |
| 20260506010805 | 15 | 108 | 1.6 | 9.7 | 0.00 | 0.69 | 0.69 | 81 | 1006.7 |
| 20260506010303 | 15 | 92 | 1.6 | 4.8 | 0.00 | 0.69 | 0.69 | 81 | 1006.6 |
| 20260506005759 | 15 | 120 | 1.6 | 3.2 | 0.00 | 0.69 | 0.69 | 82 | 1006.8 |
| 20260506005256 | 15 | 88 | 1.6 | 3.2 | 0.00 | 0.69 | 0.69 | 82 | 1006.7 |
| 20260506004752 | 15 | 130 | 1.6 | 3.2 | 0.00 | 0.69 | 0.69 | 83 | 1006.4 |
| 20260506004250 | 15 | 110 | 0.0 | 0.0 | 0.00 | 0.69 | 0.69 | 83 | 1006.9 |
| 20260506003746 | 15 | 110 | 0.0 | 1.6 | 0.00 | 0.69 | 0.69 | 81 | 1006.5 |
| 20260506003242 | 15 | 110 | 1.6 | 6.4 | 0.00 | 0.69 | 0.69 | 81 | 1006.4 |
| 20260506002739 | 15 | 116 | 0.0 | 1.6 | 0.00 | 0.69 | 0.69 | 82 | 1006.0 |
| 20260506002235 | 15 | 109 | 1.6 | 1.6 | 0.00 | 0.69 | 0.69 | 81 | 1006.1 |
| 20260506001731 | 15 | 136 | 1.6 | 3.2 | 0.00 | 0.69 | 0.69 | 81 | 1006.1 |
| 20260506001229 | 15 | 131 | 3.2 | 4.8 | 0.00 | 0.69 | 0.69 | 81 | 1006.1 |
| 20260506000725 | 15 | 60 | 1.6 | 1.6 | 0.00 | 0.69 | 0.69 | 82 | 1006.2 |
| 20260506000223 | 15 | 123 | 0.0 | 1.6 | 0.00 | 0.69 | 0.69 | 83 | 1006.2 |
| 20260505235720 | 15 | 105 | 0.0 | 3.2 | 0.00 | 0.69 | 0.69 | 82 | 1006.1 |
| 20260505235218 | 15 | 110 | 1.6 | 3.2 | 0.00 | 0.69 | 0.69 | 82 | 1006.0 |
| 20260505234714 | 16 | 120 | 1.6 | 3.2 | 0.00 | 0.69 | 0.69 | 81 | 1005.8 |
| 20260505234212 | 16 | 160 | 3.2 | 9.7 | 0.00 | 0.69 | 0.69 | 79 | 1006.0 |
| 20260505233708 | 16 | 134 | 6.4 | 11.3 | 0.00 | 0.69 | 0.69 | 80 | 1006.1 |
| 20260505233206 | 15 | 195 | 3.2 | 11.3 | 0.00 | 0.69 | 0.69 | 82 | 1005.9 |
| 20260505232703 | 15 | 104 | 1.6 | 3.2 | 0.00 | 0.69 | 0.69 | 84 | 1006.0 |
| 20260505232200 | 15 | 105 | 0.0 | 1.6 | 0.00 | 0.69 | 0.69 | 84 | 1005.9 |
| 20260505231657 | 15 | 163 | 3.2 | 4.8 | 0.00 | 0.69 | 0.69 | 84 | 1005.7 |
| 20260505231156 | 15 | 113 | 1.6 | 6.4 | 0.00 | 0.69 | 0.69 | 84 | 1005.7 |
| 20260505230654 | 16 | 105 | 0.0 | 4.8 | 0.00 | 0.69 | 0.69 | 83 | 1005.7 |
| 20260505230150 | 16 | 116 | 3.2 | 4.8 | 0.00 | 0.69 | 0.69 | 83 | 1005.3 |
| 20260505225646 | 16 | 81 | 1.6 | 3.2 | 0.00 | 0.69 | 0.69 | 83 | 1005.4 |
| 20260505225143 | 16 | 200 | 3.2 | 6.4 | 0.00 | 0.69 | 0.69 | 82 | 1005.2 |
| 20260505224639 | 16 | 173 | 1.6 | 9.7 | 0.00 | 0.69 | 0.69 | 84 | 1005.3 |
| 20260505224137 | 16 | 89 | 1.6 | 3.2 | 0.00 | 0.69 | 0.69 | 86 | 1005.3 |
| 20260505223634 | 16 | 111 | 1.6 | 4.8 | 0.00 | 0.69 | 0.69 | 84 | 1005.4 |
| 20260505223130 | 16 | 198 | 6.4 | 11.3 | 0.00 | 0.69 | 0.69 | 86 | 1005.5 |
| 20260505222626 | 16 | 118 | 1.6 | 6.4 | 0.00 | 0.69 | 0.69 | 85 | 1005.8 |
| 20260505222123 | 16 | 128 | 3.2 | 4.8 | 0.00 | 0.69 | 0.69 | 86 | 1005.5 |
| 20260505221620 | 16 | 114 | 0.0 | 1.6 | 0.00 | 0.69 | 0.69 | 86 | 1005.4 |
| 20260505221116 | 16 | 112 | 0.0 | 3.2 | 0.00 | 0.69 | 0.69 | 84 | 1005.1 |
| 20260505220614 | 16 | 124 | 1.6 | 6.4 | 0.00 | 0.69 | 0.69 | 83 | 1005.3 |
| 20260505220111 | 16 | 118 | 1.6 | 6.4 | 0.00 | 0.69 | 0.69 | 83 | 1005.1 |
| 20260505215609 | 16 | 351 | 0.0 | 1.6 | 0.00 | 0.69 | 0.69 | 87 | 1005.4 |
| 20260505215107 | 16 | 8 | 1.6 | 3.2 | 0.00 | 0.69 | 0.69 | 84 | 1005.4 |
| 20260505214605 | 16 | 33 | 1.6 | 3.2 | 0.00 | 0.69 | 0.69 | 86 | 1005.3 |
| 20260505214101 | 15 | 23 | 1.6 | 1.6 | 0.00 | 0.69 | 0.69 | 89 | 1005.1 |
| 20260505213559 | 15 | 93 | 1.6 | 3.2 | 0.00 | 0.69 | 0.69 | 87 | 1005.3 |
| 20260505213055 | 15 | 101 | 0.0 | 3.2 | 0.00 | 0.69 | 0.69 | 84 | 1005.0 |
| 20260505212551 | 15 | 151 | 3.2 | 3.2 | 0.00 | 0.69 | 0.69 | 86 | 1005.2 |
| 20260505212049 | 15 | 120 | 1.6 | 3.2 | 0.00 | 0.69 | 0.69 | 89 | 1005.3 |
| 20260505211546 | 15 | 114 | 1.6 | 1.6 | 0.00 | 0.69 | 0.69 | 88 | 1005.2 |
| 20260505211043 | 15 | 113 | 0.0 | 3.2 | 0.00 | 0.69 | 0.69 | 87 | 1004.6 |
| 20260505210539 | 15 | 86 | 1.6 | 1.6 | 0.00 | 0.69 | 0.69 | 87 | 1004.9 |
| 20260505210037 | 15 | 48 | 0.0 | 0.0 | 0.00 | 0.69 | 0.69 | 88 | 1004.5 |
| 20260505205535 | 15 | 158 | 3.2 | 3.2 | 0.00 | 0.69 | 0.69 | 85 | 1004.5 |
| 20260505205031 | 16 | 99 | 1.6 | 3.2 | 0.00 | 0.69 | 0.69 | 84 | 1004.5 |
| 20260505204529 | 16 | 160 | 4.8 | 6.4 | 0.00 | 0.69 | 0.69 | 85 | 1004.6 |
| 20260505204026 | 16 | 150 | 3.2 | 4.8 | 0.00 | 0.69 | 0.69 | 86 | 1004.5 |
| 20260505203523 | 15 | 119 | 1.6 | 3.2 | 0.18 | 0.69 | 0.69 | 90 | 1004.7 |
| 20260505203020 | 15 | 160 | 3.2 | 4.8 | 0.30 | 0.69 | 0.69 | 86 | 1004.9 |